01-06-2023, 00:00:08,    209,    3.5,    7.9,   0.00,   0.00, 1022.7,   99.0, -999.0
01-06-2023, 00:00:18,      7,    2.3,    7.9,   0.00,   0.00, 1022.7,   99.0, -999.0
01-06-2023, 00:00:28,      0,    1.8,    7.9,   0.00,   0.00, 1022.7,   99.0, -999.0
01-06-2023, 00:00:38,     37,    0.2,    7.8,   0.00,   0.00, 1022.6,   98.9, -999.0
01-06-2023, 00:00:48,     75,    0.8,    7.6,   0.00,   0.00, 1022.6,   99.0, -999.0
01-06-2023, 00:00:58,     74,    1.0,    7.9,   0.00,   0.00, 1022.7,   99.0, -999.0
01-06-2023, 00:01:08,     59,    1.4,    8.0,   0.00,   0.00, 1022.7,   99.0, -999.0
01-06-2023, 00:01:18,     15,    3.4,    7.9,   0.00,   0.00, 1022.7,   99.1, -999.0
01-06-2023, 00:01:28,     25,    0.7,    7.9,   0.00,   0.00, 1022.6,   99.0, -999.0
01-06-2023, 00:01:38,     34,    1.6,    7.9,   0.00,   0.00, 1022.7,   99.0, -999.0
01-06-2023, 00:01:48,     50,    3.5,    7.9,   0.00,   0.00, 1022.7,   99.1, -999.0
01-06-2023, 00:01:59,     20,    3.0,    7.8,   0.00,   0.00, 1022.7,   99.0, -999.0
01-06-2023, 00:02:08,    331,    1.3,    7.8,   0.00,   0.00, 1022.7,   99.1, -999.0
01-06-2023, 00:02:18,    342,    0.2,    7.9,   0.00,   0.00, 1022.6,   98.9, -999.0
01-06-2023, 00:02:28,    358,    3.2,    7.9,   0.00,   0.00, 1022.7,   99.0, -999.0
01-06-2023, 00:02:38,     40,    3.4,    7.9,   0.00,   0.00, 1022.7,   99.1, -999.0
01-06-2023, 00:02:48,     48,    0.3,    7.9,   0.00,   0.00, 1022.6,   98.8, -999.0
01-06-2023, 00:02:58,     47,    0.9,    7.8,   0.00,   0.00, 1022.6,   98.8, -999.0
01-06-2023, 00:03:08,     19,    1.9,    7.8,   0.00,   0.00, 1022.7,   99.0, -999.0
01-06-2023, 00:03:18,     23,    1.3,    7.9,   0.00,   0.00, 1022.7,   99.0, -999.0
01-06-2023, 00:03:28,     53,    0.5,    7.9,   0.00,   0.00, 1022.6,   99.0, -999.0
01-06-2023, 00:03:38,     53,    0.2,    7.9,   0.00,   0.00, 1022.6,   98.9, -999.0
01-06-2023, 00:03:48,     32,    1.7,    7.9,   0.00,   0.00, 1022.6,   98.9, -999.0
01-06-2023, 00:03:58,     26,    4.2,    7.9,   0.00,   0.00, 1022.7,   99.1, -999.0
01-06-2023, 00:04:08,     21,    2.6,    7.8,   0.00,   0.00, 1022.7,   99.0, -999.0
01-06-2023, 00:04:17,      1,    1.0,    7.8,   0.00,   0.00, 1022.7,   99.0, -999.0
01-06-2023, 00:04:28,      1,    0.2,    7.8,   0.00,   0.00, 1022.6,   98.8, -999.0
01-06-2023, 00:04:38,      1,    0.0,    7.8,   0.00,   0.00, 1022.5,   98.7, -999.0
01-06-2023, 00:04:47,     55,    0.8,    7.9,   0.00,   0.00, 1022.6,   51.6, -999.0
01-06-2023, 00:04:57,     17,    1.8,    8.0,   0.00,   0.00, 1022.6,    0.8, -999.0
01-06-2023, 00:05:08,     63,    3.9,    7.9,   0.00,   0.00, 1022.7,   71.7, -999.0
01-06-2023, 00:05:18,     42,    1.9,    8.0,   0.00,   0.00, 1022.7,   99.0, -999.0
01-06-2023, 00:05:27,     42,    0.3,    7.9,   0.00,   0.00, 1022.6,   98.8, -999.0
01-06-2023, 00:05:37,      0,    1.6,    7.9,   0.00,   0.00, 1022.6,   98.9, -999.0
01-06-2023, 00:05:48,     47,    2.6,    7.9,   0.00,   0.00, 1022.7,   98.9, -999.0
01-06-2023, 00:05:57,     51,    1.0,    7.9,   0.00,   0.00, 1022.7,   99.1, -999.0
01-06-2023, 00:06:07,     47,    0.1,    7.8,   0.00,   0.00, 1022.6,   98.9, -999.0
01-06-2023, 00:06:18,     33,    1.3,    7.9,   0.00,   0.00, 1022.7,   99.0, -999.0
01-06-2023, 00:06:27,     49,    1.2,    7.9,   0.00,   0.00, 1022.7,   99.0, -999.0
01-06-2023, 00:06:37,     60,    0.9,    7.9,   0.00,   0.00, 1022.7,   99.0, -999.0
01-06-2023, 00:06:47,     39,    1.7,    7.9,   0.00,   0.00, 1022.7,   99.0, -999.0
01-06-2023, 00:06:58,     39,    0.9,    7.8,   0.00,   0.00, 1022.7,   99.1, -999.0
01-06-2023, 00:07:07,     66,    1.5,    7.9,   0.00,   0.00, 1022.7,   99.0, -999.0
01-06-2023, 00:07:17,     66,    1.0,    7.9,   0.00,   0.00, 1022.7,   99.0, -999.0
01-06-2023, 00:07:27,     67,    0.4,    7.9,   0.00,   0.00, 1022.6,   98.8, -999.0
01-06-2023, 00:07:37,     66,    0.6,    8.0,   0.00,   0.00, 1022.7,   99.0, -999.0
01-06-2023, 00:07:47,     64,    1.9,    7.9,   0.00,   0.00, 1022.7,   99.0, -999.0
01-06-2023, 00:07:57,     55,    1.5,    8.0,   0.00,   0.00, 1022.7,   99.1, -999.0
01-06-2023, 00:08:07,     48,    1.4,    7.9,   0.00,   0.00, 1022.7,   99.0, -999.0
01-06-2023, 00:08:17,     56,    1.0,    7.9,   0.00,   0.00, 1022.7,   98.9, -999.0
01-06-2023, 00:08:27,     57,    0.2,    7.9,   0.00,   0.00, 1022.6,   98.9, -999.0
01-06-2023, 00:08:37,     57,    0.1,    7.9,   0.00,   0.00, 1022.6,   98.8, -999.0
01-06-2023, 00:08:47,     57,    0.0,    7.9,   0.00,   0.00, 1022.6,   98.8, -999.0
01-06-2023, 00:08:57,     57,    0.4,    7.9,   0.00,   0.00, 1022.6,   98.8, -999.0
01-06-2023, 00:09:07,     56,    0.4,    8.0,   0.00,   0.00, 1022.6,   99.0, -999.0
01-06-2023, 00:09:17,     57,    0.4,    8.0,   0.00,   0.00, 1022.6,   98.9, -999.0
01-06-2023, 00:09:27,     57,    0.6,    8.1,   0.00,   0.00, 1022.7,   99.0, -999.0
01-06-2023, 00:09:37,     57,    0.7,    8.1,   0.00,   0.00, 1022.6,   98.9, -999.0
01-06-2023, 00:09:47,     57,    0.4,    8.2,   0.00,   0.00, 1022.6,   98.9, -999.0
01-06-2023, 00:09:57,     56,    0.0,    8.0,   0.00,   0.00, 1022.5,   98.7, -999.0
01-06-2023, 00:10:07,     56,    0.5,    8.0,   0.00,   0.00, 1022.6,   99.0, -999.0
01-06-2023, 00:10:17,     56,    0.1,    8.0,   0.00,   0.00, 1022.6,   98.8, -999.0
01-06-2023, 00:10:27,     61,    0.8,    8.1,   0.00,   0.00, 1022.6,   99.0, -999.0
01-06-2023, 00:10:37,     60,    0.5,    8.0,   0.00,   0.00, 1022.7,   99.1, -999.0
01-06-2023, 00:10:47,      0,    0.9,    7.9,   0.00,   0.00, 1022.6,   99.0, -999.0
01-06-2023, 00:10:57,     51,    2.3,    8.0,   0.00,   0.00, 1022.7,   99.0, -999.0
01-06-2023, 00:11:07,     42,    0.8,    7.9,   0.00,   0.00, 1022.7,   99.0, -999.0
01-06-2023, 00:11:17,     42,    0.4,    7.9,   0.00,   0.00, 1022.6,   99.0, -999.0
01-06-2023, 00:11:27,     20,    1.1,    7.8,   0.00,   0.00, 1022.7,   99.0, -999.0
01-06-2023, 00:11:37,     18,    2.0,    7.9,   0.00,   0.00, 1022.7,   99.0, -999.0
01-06-2023, 00:11:47,     19,    0.6,    7.8,   0.00,   0.00, 1022.7,   99.0, -999.0
01-06-2023, 00:11:57,      4,    2.7,    7.9,   0.00,   0.00, 1022.7,   99.1, -999.0
01-06-2023, 00:12:07,     41,    3.2,    7.8,   0.00,   0.00, 1022.7,   99.0, -999.0
01-06-2023, 00:12:17,     41,    0.3,    7.8,   0.00,   0.00, 1022.6,   98.9, -999.0
01-06-2023, 00:12:27,     41,    0.2,    7.9,   0.00,   0.00, 1022.6,   98.8, -999.0
01-06-2023, 00:12:36,     30,    1.0,    7.9,   0.00,   0.00, 1022.7,   99.1, -999.0
01-06-2023, 00:12:47,     13,    2.7,    7.8,   0.00,   0.00, 1022.7,   99.1, -999.0
01-06-2023, 00:12:57,      5,    1.8,    7.8,   0.00,   0.00, 1022.7,   99.1, -999.0
01-06-2023, 00:13:06,      3,    1.3,    7.7,   0.00,   0.00, 1022.7,   99.0, -999.0
01-06-2023, 00:13:17,     51,    1.3,    7.7,   0.00,   0.00, 1022.7,   78.6, -999.0
01-06-2023, 00:13:27,     49,    1.2,    7.8,   0.00,   0.00, 1022.7,    0.9, -999.0
01-06-2023, 00:13:37,     49,    0.2,    7.8,   0.00,   0.00, 1022.6,    0.6, -999.0
01-06-2023, 00:13:46,     48,    0.7,    7.9,   0.00,   0.00, 1022.7,    1.1, -999.0
01-06-2023, 00:13:57,     48,    0.0,    7.7,   0.00,   0.00, 1022.5,    0.6, -999.0
01-06-2023, 00:14:07,     72,    0.1,    7.7,   0.00,   0.00, 1022.6,    0.4, -999.0
01-06-2023, 00:14:16,     73,    0.1,    7.8,   0.00,   0.00, 1022.6,    0.7, -999.0
01-06-2023, 00:14:26,     73,    0.0,    7.9,   0.00,   0.00, 1022.5,    0.5, -999.0
01-06-2023, 00:14:37,     70,    0.8,    7.9,   0.00,   0.00, 1022.6,    0.7, -999.0
01-06-2023, 00:14:47,     70,    0.0,    7.9,   0.00,   0.00, 1022.5,    0.5, -999.0
01-06-2023, 00:14:56,     70,    0.0,    7.9,   0.00,   0.00, 1022.5,    0.5, -999.0
01-06-2023, 00:15:06,     70,    0.0,    7.9,   0.00,   0.00, 1022.5,    0.7, -999.0
01-06-2023, 00:15:17,    359,    0.0,    7.9,   0.00,   0.00, 1022.5,    0.6, -999.0
01-06-2023, 00:15:26,     54,    1.0,    8.0,   0.00,   0.00, 1022.6,    0.4, -999.0
01-06-2023, 00:15:36,     49,    1.0,    8.0,   0.00,   0.00, 1022.6,    0.3, -999.0
01-06-2023, 00:15:46,     46,    1.9,    8.0,   0.00,   0.00, 1022.7,    0.7, -999.0
01-06-2023, 00:15:57,     57,    1.2,    8.0,   0.00,   0.00, 1022.6,    0.7, -999.0
01-06-2023, 00:16:06,     76,    1.8,    7.9,   0.00,   0.00, 1022.6,    0.7, -999.0
01-06-2023, 00:16:16,     66,    1.1,    7.9,   0.00,   0.00, 1022.6,    0.3, -999.0
01-06-2023, 00:16:26,     65,    0.5,    7.9,   0.00,   0.00, 1022.6,    0.6, -999.0
01-06-2023, 00:16:36,     66,    1.1,    7.9,   0.00,   0.00, 1022.7,    0.5, -999.0
01-06-2023, 00:16:46,     24,    1.2,    8.0,   0.00,   0.00, 1022.7,    1.3, -999.0
01-06-2023, 00:16:56,     23,    1.7,    7.9,   0.00,   0.00, 1022.7,   19.8, -999.0
01-06-2023, 00:17:06,     23,    0.8,    7.9,   0.00,   0.00, 1022.6,   99.1, -999.0
01-06-2023, 00:17:16,     23,    0.1,    7.7,   0.00,   0.00, 1022.5,   98.7, -999.0
01-06-2023, 00:17:26,     23,    0.0,    7.8,   0.00,   0.00, 1022.5,   29.8, -999.0
01-06-2023, 00:17:36,     23,    0.4,    7.8,   0.00,   0.00, 1022.6,    0.8, -999.0
01-06-2023, 00:17:46,     79,    0.5,    7.9,   0.00,   0.00, 1022.6,    0.3, -999.0
01-06-2023, 00:17:56,     79,    0.0,    7.9,   0.00,   0.00, 1022.5,    0.6, -999.0
01-06-2023, 00:18:06,     80,    0.0,    7.8,   0.00,   0.00, 1022.5,    0.6, -999.0
01-06-2023, 00:18:16,     79,    0.0,    7.9,   0.00,   0.00, 1022.5,    0.8, -999.0
01-06-2023, 00:18:26,     79,    0.0,    7.9,   0.00,   0.00, 1022.5,    0.5, -999.0
01-06-2023, 00:18:36,     41,    0.9,    8.0,   0.00,   0.00, 1022.6,    0.3, -999.0
01-06-2023, 00:18:46,     41,    1.1,    8.0,   0.00,   0.00, 1022.7,    0.8, -999.0
01-06-2023, 00:18:56,     52,    0.3,    7.9,   0.00,   0.00, 1022.6,    0.5, -999.0
01-06-2023, 00:19:06,     60,    1.3,    7.9,   0.00,   0.00, 1022.6,    0.5, -999.0
01-06-2023, 00:19:16,     20,    1.2,    7.9,   0.00,   0.00, 1022.6,    0.8, -999.0
01-06-2023, 00:19:26,     79,    2.6,    7.9,   0.00,   0.00, 1022.6,   32.1, -999.0
01-06-2023, 00:19:36,     81,    0.8,    7.9,   0.00,   0.00, 1022.7,   56.0, -999.0
01-06-2023, 00:19:46,     81,    0.1,    7.9,   0.00,   0.00, 1022.6,    0.4, -999.0
01-06-2023, 00:19:56,     88,    0.1,    8.0,   0.00,   0.00, 1022.6,    0.7, -999.0
01-06-2023, 00:20:06,     89,    0.0,    8.0,   0.00,   0.00, 1022.5,    0.6, -999.0
01-06-2023, 00:20:16,     42,    0.6,    8.1,   0.00,   0.00, 1022.7,    0.6, -999.0
01-06-2023, 00:20:26,     42,    0.4,    8.1,   0.00,   0.00, 1022.6,    0.9, -999.0
01-06-2023, 00:20:36,     42,    0.0,    7.9,   0.00,   0.00, 1022.5,    0.7, -999.0
01-06-2023, 00:20:46,     42,    0.0,    7.9,   0.00,   0.00, 1022.5,    0.3, -999.0
01-06-2023, 00:20:56,     42,    0.4,    8.0,   0.00,   0.00, 1022.6,    0.9, -999.0
01-06-2023, 00:21:06,     51,    0.3,    8.0,   0.00,   0.00, 1022.6,   67.6, -999.0
01-06-2023, 00:21:16,     67,    0.8,    7.9,   0.00,   0.00, 1022.7,   99.0, -999.0
01-06-2023, 00:21:26,     67,    0.1,    7.9,   0.00,   0.00, 1022.6,   98.9, -999.0
01-06-2023, 00:21:35,     78,    0.8,    8.0,   0.00,   0.00, 1022.6,   98.9, -999.0
01-06-2023, 00:21:46,    110,    0.8,    8.1,   0.00,   0.00, 1022.7,   57.3, -999.0
01-06-2023, 00:21:56,     64,    0.9,    7.9,   0.00,   0.00, 1022.6,    0.5, -999.0
01-06-2023, 00:22:06,     36,    2.0,    7.9,   0.00,   0.00, 1022.7,   42.3, -999.0
01-06-2023, 00:22:16,     73,    1.3,    8.0,   0.00,   0.00, 1022.7,   99.1, -999.0
01-06-2023, 00:22:26,     73,    0.0,    8.0,   0.00,   0.00, 1022.5,   98.6, -999.0
01-06-2023, 00:22:36,     73,    0.3,    7.9,   0.00,   0.00, 1022.6,   98.8, -999.0
01-06-2023, 00:22:45,     45,    0.5,    8.1,   0.00,   0.00, 1022.6,   99.0, -999.0
01-06-2023, 00:22:56,     40,    1.1,    8.0,   0.00,   0.00, 1022.7,   99.0, -999.0
01-06-2023, 00:23:06,     40,    0.8,    8.0,   0.00,   0.00, 1022.7,   99.0, -999.0
01-06-2023, 00:23:15,     40,    0.0,    7.9,   0.00,   0.00, 1022.5,   98.7, -999.0
01-06-2023, 00:23:25,     32,    0.9,    7.9,   0.00,   0.00, 1022.6,   98.9, -999.0
01-06-2023, 00:23:36,     32,    0.5,    8.0,   0.00,   0.00, 1022.6,   99.0, -999.0
01-06-2023, 00:23:45,     32,    0.5,    8.0,   0.00,   0.00, 1022.6,   98.9, -999.0
01-06-2023, 00:23:55,     32,    0.6,    8.0,   0.00,   0.00, 1022.6,   99.0, -999.0
01-06-2023, 00:24:05,     32,    1.0,    8.0,   0.00,   0.00, 1022.6,   99.0, -999.0
01-06-2023, 00:24:16,     32,    2.2,    8.0,   0.00,   0.00, 1022.6,   99.0, -999.0
01-06-2023, 00:24:25,     32,    1.0,    7.9,   0.00,   0.00, 1022.6,   98.9, -999.0
01-06-2023, 00:24:35,     33,    0.0,    7.8,   0.00,   0.00, 1022.5,   98.7, -999.0
01-06-2023, 00:24:46,     32,    0.0,    7.8,   0.00,   0.00, 1022.5,   98.7, -999.0
01-06-2023, 00:24:55,     32,    0.0,    7.9,   0.00,   0.00, 1022.5,   98.6, -999.0
01-06-2023, 00:25:05,     33,    0.0,    7.9,   0.00,   0.00, 1022.5,   98.7, -999.0
01-06-2023, 00:25:15,     33,    0.0,    7.9,   0.00,   0.00, 1022.5,   98.6, -999.0
01-06-2023, 00:25:26,     33,    0.0,    7.9,   0.00,   0.00, 1022.5,   98.7, -999.0
01-06-2023, 00:25:35,     32,    0.0,    8.0,   0.00,   0.00, 1022.5,   98.7, -999.0
01-06-2023, 00:25:45,     33,    0.0,    8.0,   0.00,   0.00, 1022.5,   49.7, -999.0
01-06-2023, 00:25:55,     33,    0.0,    8.1,   0.00,   0.00, 1022.5,    0.5, -999.0
01-06-2023, 00:26:05,     33,    0.0,    8.0,   0.00,   0.00, 1022.5,    2.6, -999.0
01-06-2023, 00:26:15,     32,    0.0,    8.1,   0.00,   0.00, 1022.5,   98.2, -999.0
01-06-2023, 00:26:25,     33,    0.0,    8.1,   0.00,   0.00, 1022.5,   98.7, -999.0
01-06-2023, 00:26:35,     33,    0.0,    8.1,   0.00,   0.00, 1022.5,   98.6, -999.0
01-06-2023, 00:26:45,     32,    0.0,    8.0,   0.00,   0.00, 1022.5,   98.7, -999.0
01-06-2023, 00:26:55,     32,    0.0,    8.0,   0.00,   0.00, 1022.5,   98.6, -999.0
01-06-2023, 00:27:05,     32,    0.0,    8.1,   0.00,   0.00, 1022.5,   98.6, -999.0
01-06-2023, 00:27:15,     32,    0.0,    8.2,   0.00,   0.00, 1022.5,   98.7, -999.0
01-06-2023, 00:27:25,     33,    0.0,    8.2,   0.00,   0.00, 1022.5,   98.7, -999.0
01-06-2023, 00:27:35,     46,    0.5,    8.2,   0.00,   0.00, 1022.6,   99.0, -999.0
01-06-2023, 00:27:45,     46,    0.0,    8.1,   0.00,   0.00, 1022.5,   98.7, -999.0
01-06-2023, 00:27:55,     46,    0.0,    8.1,   0.00,   0.00, 1022.5,   98.6, -999.0
01-06-2023, 00:28:05,     26,    2.1,    8.1,   0.00,   0.00, 1022.7,   99.0, -999.0
01-06-2023, 00:28:15,     13,    1.2,    8.1,   0.00,   0.00, 1022.7,   99.0, -999.0
01-06-2023, 00:28:25,     12,    0.4,    8.0,   0.00,   0.00, 1022.6,   99.0, -999.0
01-06-2023, 00:28:35,     13,    0.0,    7.9,   0.00,   0.00, 1022.6,   98.7, -999.0
01-06-2023, 00:28:45,     12,    0.0,    7.8,   0.00,   0.00, 1022.5,   98.6, -999.0
01-06-2023, 00:28:55,     13,    0.0,    7.9,   0.00,   0.00, 1022.5,   98.7, -999.0
01-06-2023, 00:29:05,     13,    0.0,    8.0,   0.00,   0.00, 1022.5,   98.6, -999.0
01-06-2023, 00:29:15,     13,    0.0,    8.0,   0.00,   0.00, 1022.6,   98.7, -999.0
01-06-2023, 00:29:25,     13,    0.1,    8.1,   0.00,   0.00, 1022.6,   98.8, -999.0
01-06-2023, 00:29:35,     13,    0.0,    7.9,   0.00,   0.00, 1022.5,   98.7, -999.0
01-06-2023, 00:29:45,     13,    0.0,    7.9,   0.00,   0.00, 1022.5,   98.6, -999.0
01-06-2023, 00:29:55,     13,    0.0,    8.0,   0.00,   0.00, 1022.5,   98.7, -999.0
01-06-2023, 00:30:05,     13,    0.0,    7.9,   0.00,   0.00, 1022.5,   98.8, -999.0
01-06-2023, 00:30:15,     13,    0.0,    8.0,   0.00,   0.00, 1022.5,   98.6, -999.0
01-06-2023, 00:30:24,     13,    0.0,    7.9,   0.00,   0.00, 1022.5,   98.6, -999.0
01-06-2023, 00:30:35,     13,    0.2,    7.9,   0.00,   0.00, 1022.6,   98.9, -999.0
01-06-2023, 00:30:45,     13,    0.2,    7.9,   0.00,   0.00, 1022.6,   98.9, -999.0
01-06-2023, 00:30:55,     13,    0.2,    7.9,   0.00,   0.00, 1022.6,   98.9, -999.0
01-06-2023, 00:31:04,     12,    0.0,    7.8,   0.00,   0.00, 1022.5,   98.6, -999.0
01-06-2023, 00:31:15,     12,    0.0,    7.8,   0.00,   0.00, 1022.5,   98.7, -999.0
01-06-2023, 00:31:25,     13,    0.0,    7.7,   0.00,   0.00, 1022.5,   98.7, -999.0
01-06-2023, 00:31:34,     54,    0.4,    7.8,   0.00,   0.00, 1022.6,   98.8, -999.0
01-06-2023, 00:31:44,     53,    0.0,    7.8,   0.00,   0.00, 1022.5,   98.6, -999.0
01-06-2023, 00:31:55,     55,    0.1,    7.8,   0.00,   0.00, 1022.6,   98.8, -999.0
01-06-2023, 00:32:05,     54,    0.0,    7.8,   0.00,   0.00, 1022.5,   98.5, -999.0
01-06-2023, 00:32:14,     51,    0.4,    7.9,   0.00,   0.00, 1022.6,   98.9, -999.0
01-06-2023, 00:32:25,     35,    0.9,    7.9,   0.00,   0.00, 1022.6,   99.0, -999.0
01-06-2023, 00:32:35,     33,    0.6,    7.8,   0.00,   0.00, 1022.6,   98.9, -999.0
01-06-2023, 00:32:44,     33,    1.5,    7.9,   0.00,   0.00, 1022.6,   99.0, -999.0
01-06-2023, 00:32:54,     70,    0.4,    7.9,   0.00,   0.00, 1022.6,   98.9, -999.0
01-06-2023, 00:33:05,     29,    2.6,    7.9,   0.00,   0.00, 1022.7,   99.0, -999.0
01-06-2023, 00:33:14,     65,    3.2,    7.8,   0.00,   0.00, 1022.7,   99.0, -999.0
01-06-2023, 00:33:24,     90,    2.3,    7.9,   0.00,   0.00, 1022.7,   99.0, -999.0
01-06-2023, 00:33:34,    137,    0.8,    8.0,   0.00,   0.00, 1022.6,   98.9, -999.0
01-06-2023, 00:33:45,     23,    0.9,    8.0,   0.00,   0.00, 1022.6,   99.0, -999.0
01-06-2023, 00:33:54,     24,    0.0,    8.0,   0.00,   0.00, 1022.5,   98.7, -999.0
01-06-2023, 00:34:04,     82,    0.8,    8.1,   0.00,   0.00, 1022.6,   99.0, -999.0
01-06-2023, 00:34:14,     88,    0.5,    8.0,   0.00,   0.00, 1022.6,   98.8, -999.0
01-06-2023, 00:34:24,     89,    0.3,    8.1,   0.00,   0.00, 1022.6,   99.0, -999.0
01-06-2023, 00:34:35,     89,    0.0,    8.2,   0.00,   0.00, 1022.5,   98.8, -999.0
01-06-2023, 00:34:44,     88,    0.0,    8.0,   0.00,   0.00, 1022.5,   98.7, -999.0
01-06-2023, 00:34:54,     89,    0.0,    8.1,   0.00,   0.00, 1022.5,   98.7, -999.0
01-06-2023, 00:35:04,     89,    0.0,    8.1,   0.00,   0.00, 1022.5,   98.6, -999.0
01-06-2023, 00:35:14,     89,    0.0,    8.1,   0.00,   0.00, 1022.5,   98.7, -999.0
01-06-2023, 00:35:24,     88,    0.0,    8.2,   0.00,   0.00, 1022.5,   98.6, -999.0
01-06-2023, 00:35:34,     75,    0.9,    8.1,   0.00,   0.00, 1022.6,   99.0, -999.0
01-06-2023, 00:35:44,     69,    1.0,    8.1,   0.00,   0.00, 1022.6,   99.0, -999.0
01-06-2023, 00:35:54,     69,    0.0,    8.0,   0.00,   0.00, 1022.5,   98.6, -999.0
01-06-2023, 00:36:04,     69,    0.0,    8.0,   0.00,   0.00, 1022.5,   98.7, -999.0
01-06-2023, 00:36:14,     69,    0.1,    8.0,   0.00,   0.00, 1022.5,   98.7, -999.0
01-06-2023, 00:36:24,     69,    0.3,    8.1,   0.00,   0.00, 1022.6,   99.0, -999.0
01-06-2023, 00:36:34,     47,    0.6,    8.2,   0.00,   0.00, 1022.6,   98.6, -999.0
01-06-2023, 00:36:44,     24,    1.1,    8.2,   0.00,   0.00, 1022.6,   99.1, -999.0
01-06-2023, 00:36:54,     49,    2.1,    8.2,   0.00,   0.00, 1022.7,   99.1, -999.0
01-06-2023, 00:37:04,     40,    2.0,    8.2,   0.00,   0.00, 1022.7,   99.0, -999.0
01-06-2023, 00:37:14,     81,    2.0,    8.1,   0.00,   0.00, 1022.7,   99.0, -999.0
01-06-2023, 00:37:24,     46,    3.3,    8.0,   0.00,   0.00, 1022.7,   99.1, -999.0
01-06-2023, 00:37:34,     42,    2.0,    8.1,   0.00,   0.00, 1022.6,   99.0, -999.0
01-06-2023, 00:37:44,     35,    1.0,    8.0,   0.00,   0.00, 1022.6,   98.9, -999.0
01-06-2023, 00:37:54,     74,    0.2,    7.9,   0.00,   0.00, 1022.5,   98.8, -999.0
01-06-2023, 00:38:04,     73,    0.1,    8.0,   0.00,   0.00, 1022.6,   98.8, -999.0
01-06-2023, 00:38:14,     19,    2.1,    8.1,   0.00,   0.00, 1022.7,   99.0, -999.0
01-06-2023, 00:38:24,     31,    2.2,    8.0,   0.00,   0.00, 1022.6,   99.0, -999.0
01-06-2023, 00:38:34,     30,    1.8,    7.9,   0.00,   0.00, 1022.7,   99.0, -999.0
01-06-2023, 00:38:44,     84,    0.9,    7.9,   0.00,   0.00, 1022.6,   98.9, -999.0
01-06-2023, 00:38:54,     36,    0.6,    7.9,   0.00,   0.00, 1022.6,   98.9, -999.0
01-06-2023, 00:39:04,     51,    2.9,    7.9,   0.00,   0.00, 1022.7,   99.0, -999.0
01-06-2023, 00:39:14,     36,    1.7,    7.9,   0.00,   0.00, 1022.6,   99.0, -999.0
01-06-2023, 00:39:23,     57,    1.3,    7.9,   0.00,   0.00, 1022.7,   99.0, -999.0
01-06-2023, 00:39:34,     57,    0.1,    7.9,   0.00,   0.00, 1022.6,   98.8, -999.0
01-06-2023, 00:39:44,     57,    0.2,    7.9,   0.00,   0.00, 1022.6,   98.9, -999.0
01-06-2023, 00:39:54,     57,    0.0,    7.9,   0.00,   0.00, 1022.5,   98.7, -999.0
01-06-2023, 00:40:04,     57,    0.3,    7.9,   0.00,   0.00, 1022.6,   98.8, -999.0
01-06-2023, 00:40:14,     57,    0.4,    8.0,   0.00,   0.00, 1022.6,   98.8, -999.0
01-06-2023, 00:40:24,     57,    0.0,    7.9,   0.00,   0.00, 1022.5,   98.6, -999.0
01-06-2023, 00:40:33,     16,    0.9,    8.0,   0.00,   0.00, 1022.6,   99.0, -999.0
01-06-2023, 00:40:44,     53,    1.0,    8.0,   0.00,   0.00, 1022.7,   99.0, -999.0
01-06-2023, 00:40:54,     61,    3.1,    7.9,   0.00,   0.00, 1022.6,   99.0, -999.0
01-06-2023, 00:41:03,     42,    2.7,    7.8,   0.00,   0.00, 1022.7,   99.0, -999.0
01-06-2023, 00:41:13,     17,    1.7,    7.9,   0.00,   0.00, 1022.7,   99.0, -999.0
01-06-2023, 00:41:24,     43,    2.5,    7.8,   0.00,   0.00, 1022.7,   99.0, -999.0
01-06-2023, 00:41:34,      4,    2.0,    7.8,   0.00,   0.00, 1022.7,   99.0, -999.0
01-06-2023, 00:41:43,     21,    0.7,    7.8,   0.00,   0.00, 1022.7,   99.0, -999.0
01-06-2023, 00:41:53,     21,    0.0,    7.8,   0.00,   0.00, 1022.6,   98.9, -999.0
01-06-2023, 00:42:04,     24,    0.2,    7.8,   0.00,   0.00, 1022.6,   98.8, -999.0
01-06-2023, 00:42:13,     24,    0.0,    7.8,   0.00,   0.00, 1022.5,   98.6, -999.0
01-06-2023, 00:42:23,     27,    0.0,    7.8,   0.00,   0.00, 1022.5,   98.7, -999.0
01-06-2023, 00:42:33,     33,    0.6,    7.9,   0.00,   0.00, 1022.6,   98.8, -999.0
01-06-2023, 00:42:44,     33,    0.5,    7.9,   0.00,   0.00, 1022.6,   99.0, -999.0
01-06-2023, 00:42:53,     33,    0.4,    7.9,   0.00,   0.00, 1022.6,   98.9, -999.0
01-06-2023, 00:43:03,     29,    0.7,    7.9,   0.00,   0.00, 1022.6,   99.0, -999.0
01-06-2023, 00:43:13,     35,    1.1,    8.0,   0.00,   0.00, 1022.7,   99.1, -999.0
01-06-2023, 00:43:23,     41,    1.1,    7.8,   0.00,   0.00, 1022.6,   99.0, -999.0
01-06-2023, 00:43:33,     41,    0.1,    7.9,   0.00,   0.00, 1022.6,   98.7, -999.0
01-06-2023, 00:43:43,     41,    0.4,    7.9,   0.00,   0.00, 1022.6,   98.9, -999.0
01-06-2023, 00:43:53,     41,    0.7,    8.0,   0.00,   0.00, 1022.6,   98.9, -999.0
01-06-2023, 00:44:03,     41,    0.5,    8.0,   0.00,   0.00, 1022.7,   99.0, -999.0
01-06-2023, 00:44:13,     65,    2.8,    7.9,   0.00,   0.00, 1022.7,   99.0, -999.0
01-06-2023, 00:44:23,     43,    1.4,    8.0,   0.00,   0.00, 1022.7,   99.1, -999.0
01-06-2023, 00:44:33,     42,    1.3,    7.9,   0.00,   0.00, 1022.7,   99.0, -999.0
01-06-2023, 00:44:43,     42,    1.3,    7.9,   0.00,   0.00, 1022.6,   99.0, -999.0
01-06-2023, 00:44:53,     42,    0.7,    7.9,   0.00,   0.00, 1022.6,   99.0, -999.0
01-06-2023, 00:45:03,     42,    0.0,    7.7,   0.00,   0.00, 1022.5,   98.7, -999.0
01-06-2023, 00:45:13,     42,    0.0,    7.8,   0.00,   0.00, 1022.5,   98.8, -999.0
01-06-2023, 00:45:23,     42,    0.0,    7.9,   0.00,   0.00, 1022.5,   98.6, -999.0
01-06-2023, 00:45:33,     42,    0.0,    7.8,   0.00,   0.00, 1022.5,   98.6, -999.0
01-06-2023, 00:45:43,     42,    0.1,    7.8,   0.00,   0.00, 1022.6,   98.8, -999.0
01-06-2023, 00:45:53,     43,    0.0,    8.0,   0.00,   0.00, 1022.5,   98.7, -999.0
01-06-2023, 00:46:03,     44,    0.0,    7.9,   0.00,   0.00, 1022.5,   98.7, -999.0
01-06-2023, 00:46:13,     50,    0.0,    8.1,   0.00,   0.00, 1022.5,   98.8, -999.0
01-06-2023, 00:46:23,     50,    0.0,    8.0,   0.00,   0.00, 1022.5,   98.7, -999.0
01-06-2023, 00:46:33,     51,    0.0,    8.0,   0.00,   0.00, 1022.5,   98.7, -999.0
01-06-2023, 00:46:43,     60,    0.9,    8.0,   0.00,   0.00, 1022.6,   99.0, -999.0
01-06-2023, 00:46:53,     60,    0.3,    8.0,   0.00,   0.00, 1022.6,   98.8, -999.0